Overview Statistics Trail Chart Weather Telemetry Raw packets
 

This is the latest recevied weather packets stored in our database for station/object KO4LCK. If no packets are shown the sender has not sent any weather packets the latest 10 day(s).

<< 16 17 18 19 20 21 22 >>
Time Temp. Humidity Pressure Rain* Wind** Luminosity Snow
1788535875 33.33° C 58% 1018.9 hPa 0 mm - 610 W/m² -
1788535572 33.89° C 56% 1019.1 hPa 0 mm - 597 W/m² -
1788535267 33.33° C 59% 1019.1 hPa 0 mm - 589 W/m² -
1788534962 33.33° C 57% 1019.1 hPa 0 mm - 575 W/m² -
1788534660 32.22° C 60% 1019.1 hPa 0 mm - 563 W/m² -
1788534356 32.22° C 60% 1019.1 hPa 0 mm - 547 W/m² -
1788534056 32.22° C 60% 1019.1 hPa 0 mm - 535 W/m² -
1788533755 31.67° C 63% 1019 hPa 0 mm - 520 W/m² -
1788533450 31.67° C 63% 1018.9 hPa 0 mm - 504 W/m² -
1788533146 31.67° C 63% 1019 hPa 0 mm - 486 W/m² -
1788532842 31.67° C 64% 1018.9 hPa 0 mm - 473 W/m² -
1788532538 31.11° C 64% 1019 hPa 0 mm - 459 W/m² -
1788532234 31.11° C 64% 1018.9 hPa 0 mm - 441 W/m² -
1788531931 30.56° C 66% 1019.1 hPa 0 mm - 426 W/m² -
1788531626 30.56° C 66% 1018.8 hPa 0 mm - 413 W/m² -
1788531320 30.56° C 66% 1018.9 hPa 0 mm - 396 W/m² -
1788531016 30.56° C 67% 1018.9 hPa 0 mm - 372 W/m² -
1788530710 30° C 67% 1019 hPa 0 mm - 359 W/m² -
1788530410 30° C 67% 1018.9 hPa 0 mm - 352 W/m² -
1788530109 30° C 67% 1019 hPa 0 mm - 328 W/m² -
1788529807 30° C 68% 1019 hPa 0 mm - 312 W/m² -
1788529507 29.44° C 69% 1018.9 hPa 0 mm - 298 W/m² -
1788529200 29.44° C 69% 1018.7 hPa 0 mm - 286 W/m² -
1788528895 28.89° C 71% 1018.8 hPa 0 mm - 271 W/m² -
1788528591 28.89° C 71% 1018.7 hPa 0 mm - 260 W/m² -

* Rain latest hour (hover to see other rain measurements)
** Current wind speed in m/s (hover to see current wind gust speed)